Theta_e
273 279 279 279 276 278 275 278 277 281 277 287 284 285 285 285 286 284 283 281 282 280 280 278 281 280 281 282 283 285 287 287 290 291 291 291 291 291 292 293 294 294 295 296
274 273 276 276 278 278 277 275 276 278 280 289 290 286 283 285 284 285 285 282 281 282 281 280 278 280 281 279 282 284 285 285 289 290 290 290 291 290 291 292 292 293 293 293
275 272 274 277 282 279 278 279 281 277 288 288 286 286 286 286 286 286 286 284 283 283 282 282 281 282 280 281 282 283 285 284 285 287 286 289 290 290 289 290 291 291 291 292
272 273 276 285 283 283 283 284 282 284 286 288 287 287 287 287 286 286 286 285 284 283 282 282 282 280 281 282 282 284 284 284 285 285 285 285 284 288 289 290 289 289 290 291
276 271 281 284 282 282 283 287 286 286 289 288 286 286 286 285 285 286 286 287 285 284 282 281 281 281 281 281 282 283 284 284 284 284 284 284 285 284 285 286 286 288 288 289
277 279 275 284 284 284 285 282 288 286 286 285 285 284 286 284 285 285 285 285 284 283 282 281 280 281 281 281 281 281 283 284 284 284 284 284 283 283 283 284 285 285 285 285
280 284 283 287 284 284 281 285 285 285 286 285 285 287 286 286 285 285 285 284 283 282 282 281 280 281 280 280 281 283 282 282 281 282 283 283 282 282 282 282 282 279 280 282
284 284 283 284 283 286 289 285 285 285 285 285 286 286 285 286 285 284 284 285 284 282 281 280 280 281 281 280 281 280 279 278 276 275 281 281 278 277 277 277 276 276 276 278
288 287 289 286 289 288 288 287 283 283 284 286 285 285 284 286 286 285 284 285 284 283 279 276 278 279 280 279 278 275 275 276 273 273 275 277 277 275 276 275 275 275 276 276
285 285 287 287 286 286 287 287 285 285 286 285 286 286 285 286 285 285 284 282 279 280 279 279 276 279 277 277 276 275 274 273 273 274 273 272 276 277 275 274 273 275 275 275
280 283 285 288 287 288 287 286 286 286 286 287 286 286 285 286 285 284 284 279 279 280 279 278 277 277 273 273 276 276 274 274 276 276 275 274 275 276 277 275 277 273 272 274
288 288 290 291 290 288 288 288 289 286 285 285 286 286 285 285 283 282 280 278 278 280 281 282 280 280 277 275 276 277 276 276 277 277 275 275 275 274 281 283 284 285 285 279
289 289 289 284 282 284 288 288 288 287 287 286 282 284 281 282 279 278 277 276 276 278 278 279 280 281 281 279 278 279 280 279 278 278 278 276 274 275 275 278 284 286 286 287
286 286 285 282 288 281 281 278 278 276 276 279 278 275 276 277 274 277 278 278 276 275 276 276 277 278 278 280 280 280 280 279 279 278 279 279 278 276 275 277 276 276 280 284
286 285 286 281 278 275 273 275 279 278 275 274 271 271 273 275 274 275 274 273 275 278 278 275 276 278 276 279 281 280 280 281 280 280 280 279 276 276 276 276 276 277 277 279
284 280 277 280 280 276 278 276 279 279 277 275 271 269 275 273 269 270 273 275 276 274 273 276 277 279 284 281 280 282 282 281 282 281 279 278 278 278 276 277 279 279 280 281
281 278 276 275 279 275 273 279 279 275 269 271 266 274 272 269 271 276 272 269 270 270 274 275 276 274 276 279 281 284 284 282 282 281 280 279 278 278 279 280 281 283 283 284
280 282 282 283 278 274 274 274 273 270 266 266 269 276 270 271 274 274 268 265 268 269 268 271 274 271 272 274 276 279 281 283 283 282 281 280 280 281 282 282 283 283 282 282
275 276 276 277 276 273 270 268 266 264 263 264 269 271 268 272 267 269 268 265 266 267 266 267 273 271 273 276 278 276 280 284 284 284 284 284 284 284 283 283 282 282 281 281
269 270 269 268 268 269 267 265 265 265 263 267 267 267 269 271 269 265 265 262 262 263 264 264 265 268 271 276 280 280 281 282 283 283 283 283 283 281 280 279 278 276 275 274
266 267 266 266 264 264 264 264 266 265 264 266 266 265 265 267 269 270 269 267 264 264 264 266 266 267 268 270 275 276 277 277 277 276 277 275 274 273 272 272 272 271 271 271
266 263 263 263 262 260 260 261 262 262 263 263 262 262 263 262 263 263 263 263 263 265 265 266 267 268 268 270 271 272 271 272 272 272 271 271 270 269 269 269 269 269 269 268
266 265 265 264 262 260 260 260 260 261 260 260 260 260 260 260 259 263 263 262 265 266 266 267 268 268 269 268 268 268 268 268 268 268 268 268 268 267 267 267 267 267 267 267
263 263 261 262 261 261 259 258 260 259 259 259 259 258 259 260 259 261 262 262 263 263 264 265 266 267 265 265 265 265 266 266 266 266 266 266 266 266 266 266 265 265 265 266
261 261 261 261 260 259 259 259 259 258 258 257 258 258 258 258 259 258 260 260 263 261 261 263 265 264 263 263 264 264 264 264 264 264 264 264 264 265 264 264 264 264 264 264
261 260 260 260 260 261 260 261 259 258 258 258 258 258 259 259 259 259 260 260 259 260 260 261 261 261 262 262 262 262 262 262 263 262 262 262 263 263 263 263 263 263 262 262
261 262 262 261 262 262 262 260 260 258 258 258 257 258 259 259 259 259 259 259 259 258 258 259 259 259 260 260 260 261 261 261 261 261 262 262 261 261 261 261 262 262 262 261
Wind_Speed
3 3 3 5 6 9 9 7 8 5 11 19 6 8 8 8 8 7 8 6 7 6 6 5 6 4 4 3 3 2 1 2 3 3 3 4 5 6 6 8 7 7 7 8
2 4 5 2 4 8 7 4 10 8 23 14 18 7 6 9 8 9 9 7 6 7 8 8 7 7 5 4 4 2 1 2 2 3 3 4 5 5 6 7 8 8 9 10
5 2 3 4 11 14 6 6 10 10 21 6 7 6 7 9 9 10 9 8 6 9 9 8 8 8 7 6 4 3 2 1 2 3 4 4 5 6 6 7 6 8 8 8
4 2 4 8 4 6 14 9 15 13 15 15 7 6 8 9 11 10 8 7 6 6 7 8 7 6 7 6 5 5 3 2 2 2 3 3 3 5 5 4 6 5 6 6
7 5 6 3 6 9 9 12 16 22 21 9 3 5 6 5 4 7 7 6 5 7 6 7 9 8 7 7 6 5 5 4 3 3 3 2 4 4 4 3 4 4 4 5
4 5 9 7 2 5 5 8 6 9 8 5 4 1 4 1 4 7 5 3 6 7 6 8 8 9 9 7 6 6 6 6 4 2 2 2 1 3 3 3 3 3 4 4
6 6 7 5 6 6 6 9 4 6 5 7 5 4 2 6 5 4 2 4 6 7 8 8 9 9 8 8 9 7 6 6 4 4 3 3 2 3 3 4 4 5 4 5
3 7 17 7 5 11 7 2 6 5 5 6 6 5 5 6 5 3 4 5 6 6 7 6 7 9 8 8 5 6 6 6 5 4 3 3 4 2 3 4 3 4 3 3
14 8 2 14 6 7 5 5 4 5 6 5 4 2 2 3 6 3 3 4 4 6 5 2 6 6 8 5 7 6 5 5 4 4 3 3 4 3 2 3 2 0 1 2
4 5 7 9 5 3 6 6 5 5 7 5 4 4 2 1 3 2 1 2 3 6 5 6 5 6 4 6 6 6 5 4 3 5 4 3 2 2 3 2 1 0 1 2
4 3 3 8 9 5 8 4 5 5 5 6 4 4 2 2 1 2 3 2 4 6 5 4 4 5 4 4 6 5 3 3 4 3 4 3 2 3 3 3 4 3 3 3
10 10 7 5 7 8 9 12 13 8 5 5 4 5 3 2 3 1 2 1 2 4 5 6 7 7 6 6 6 6 4 3 3 3 3 2 2 2 6 9 8 10 9 5
7 9 8 4 2 3 9 9 7 9 7 5 1 2 2 4 3 2 2 2 2 5 4 4 4 5 6 9 8 7 7 5 4 3 3 3 2 3 3 2 6 11 11 11
4 7 3 4 6 5 5 4 6 6 5 6 4 4 2 3 3 6 3 2 3 3 4 2 3 4 4 7 7 6 5 5 4 3 3 3 3 3 2 2 2 3 3 6
9 2 3 8 7 4 3 3 8 7 6 6 5 4 4 6 5 3 3 2 4 6 5 4 2 3 2 5 6 6 5 4 4 4 4 2 2 2 2 2 1 2 3 3
8 5 5 6 8 6 4 3 6 6 4 4 4 3 4 6 3 3 5 6 5 6 5 6 6 8 5 1 3 4 6 8 6 5 3 4 3 2 2 2 2 2 2 2
7 3 3 3 8 5 4 4 4 7 5 6 2 2 4 6 6 8 7 6 8 7 6 6 6 6 5 4 3 1 1 1 5 5 5 4 4 3 4 2 3 1 1 1
3 3 5 7 11 9 6 5 6 6 3 3 4 4 6 7 6 6 4 2 5 8 8 7 7 6 6 5 3 2 4 3 2 1 2 4 3 3 4 1 1 3 2 2
5 6 6 9 10 10 8 7 6 5 4 3 5 7 6 7 5 5 5 6 7 5 8 8 10 6 6 6 4 2 4 6 4 4 2 3 5 4 4 3 4 4 4 4
8 7 8 11 10 8 10 6 6 6 4 5 7 7 7 7 7 6 7 8 4 2 6 6 6 5 6 6 7 4 4 6 6 4 4 5 6 6 6 9 8 8 8 7
9 8 9 9 10 10 9 6 6 6 4 4 7 6 5 5 5 3 4 5 6 6 5 6 6 5 4 5 6 6 6 7 8 7 7 7 7 8 8 8 8 8 8 8
8 7 8 8 9 9 6 6 7 6 7 8 7 6 8 7 7 9 9 5 3 7 5 5 5 8 6 9 7 7 8 8 8 7 8 8 8 8 8 8 9 8 8 8
7 8 9 9 9 8 8 8 8 8 8 7 7 7 7 5 3 2 5 7 5 8 6 7 8 11 13 9 8 9 10 10 10 9 9 9 9 9 9 8 9 8 8 8
8 8 8 9 9 9 12 5 9 9 9 9 8 5 4 6 7 6 5 7 10 9 8 8 10 13 11 8 9 9 9 10 9 9 9 11 9 9 9 9 9 8 7 9
9 8 8 8 9 7 9 8 9 8 8 8 8 7 6 4 5 1 5 6 9 9 8 13 14 14 9 9 9 9 9 9 8 8 9 9 9 9 8 8 8 7 7 8
8 6 4 6 6 6 5 5 7 5 6 7 6 5 6 5 6 6 6 8 7 9 8 7 7 8 9 9 10 10 9 9 9 9 9 8 9 8 8 8 8 8 7 6
7 8 8 7 5 5 5 6 7 5 4 6 8 5 6 6 7 7 8 8 7 7 7 7 7 9 8 9 9 9 9 9 10 8 8 8 8 7 7 7 7 6 7 7
Wind_Direction
313 26 131 161 165 176 189 194 177 248 228 260 248 228 251 255 277 285 280 258 223 197 188 185 176 184 191 190 231 242 113 76 63 50 51 30 27 34 26 30 26 28 30 30
2 4 42 274 196 194 228 251 273 281 277 268 271 240 278 270 277 279 274 262 231 198 178 184 179 176 191 190 206 238 152 91 45 53 60 59 52 47 57 47 34 36 38 44
241 17 83 335 224 191 194 212 204 215 246 277 257 236 254 269 260 262 263 270 227 202 187 175 176 162 183 189 173 184 191 123 38 50 47 60 68 68 56 60 53 56 55 59
152 34 267 229 139 172 202 236 213 259 260 254 261 248 258 250 264 269 251 253 229 186 173 167 155 149 149 163 178 171 204 187 123 68 53 25 39 82 85 76 68 54 49 53
143 207 312 273 198 170 170 271 202 225 252 270 257 324 289 217 229 262 248 234 216 166 162 158 153 154 148 159 173 169 188 215 194 143 105 48 66 49 36 85 94 99 108 93
131 194 211 236 155 155 147 289 212 186 238 224 131 119 260 247 299 305 249 176 169 151 140 146 158 146 146 167 171 196 192 193 186 168 128 102 75 74 23 16 53 60 79 75
185 226 270 227 150 175 100 236 148 177 200 152 179 213 290 313 313 305 244 158 138 153 158 166 150 148 160 167 195 189 173 163 161 165 152 122 81 26 40 47 50 31 23 22
169 219 245 139 92 176 208 111 154 182 183 183 228 302 304 300 314 358 155 130 147 155 161 159 155 154 164 193 178 160 155 153 156 156 156 134 121 72 59 66 58 36 29 2
190 209 166 185 199 188 173 140 190 171 165 186 186 196 14 329 300 316 184 156 150 160 146 141 165 166 174 207 156 149 149 171 166 145 147 147 138 127 91 111 122 83 51 338
107 205 208 202 246 224 180 178 182 183 165 189 202 151 135 44 318 275 191 165 140 141 166 191 192 194 179 153 149 146 165 172 168 163 157 147 127 144 144 153 175 226 263 263
281 282 331 267 224 204 192 199 195 210 187 195 191 236 203 152 151 255 219 172 161 172 173 213 181 210 162 154 148 161 163 180 188 168 171 166 180 181 188 207 174 184 214 199
214 195 180 206 209 172 183 209 210 182 217 222 221 219 193 161 102 77 266 243 189 194 193 203 178 193 183 172 162 155 176 186 203 180 177 170 173 281 245 232 225 230 226 194
193 201 193 125 69 138 199 209 181 188 204 208 35 158 159 140 107 60 26 356 279 244 225 177 173 191 185 176 173 182 192 176 173 175 188 175 185 200 235 313 254 245 244 245
141 120 94 163 204 170 136 119 105 94 73 68 87 44 35 84 67 84 62 300 299 315 309 246 162 211 181 164 178 193 180 160 165 154 183 182 197 214 168 200 252 303 306 265
187 182 121 108 92 69 59 100 103 102 99 89 51 75 60 74 67 45 329 335 92 79 45 25 37 9 302 166 178 176 172 171 162 165 168 174 150 149 168 164 239 303 327 321
122 102 91 121 141 134 114 65 119 126 110 105 110 89 104 98 102 48 26 26 77 55 19 52 39 348 346 192 185 176 179 169 168 169 158 156 168 162 171 182 195 165 256 271
103 119 114 132 167 158 162 85 103 120 123 113 117 177 89 105 79 65 47 43 83 76 49 30 13 342 2 21 136 105 23 307 166 161 165 156 151 169 152 216 165 157 264 314
77 92 121 138 153 145 133 102 96 111 117 149 160 111 70 78 90 88 69 47 70 61 35 9 352 351 3 17 45 121 116 113 92 45 102 133 135 138 130 160 92 74 43 26
42 99 96 96 121 118 116 114 106 110 107 111 94 87 96 85 82 82 70 51 48 52 1 346 346 351 10 6 38 57 104 105 91 83 77 102 93 85 85 85 70 68 55 46
85 58 72 92 82 95 113 102 112 105 88 105 106 97 91 93 100 89 78 76 44 327 319 332 350 5 354 8 36 50 65 92 94 93 83 74 73 74 69 60 60 54 50 46
90 93 90 88 87 84 87 90 104 94 88 97 106 102 105 77 63 81 91 81 11 354 358 2 10 6 8 16 50 56 57 67 74 73 69 72 75 70 68 63 60 57 54 49
115 104 102 95 93 90 76 89 95 99 90 85 81 89 95 76 77 74 51 67 317 13 13 30 27 22 40 53 56 58 63 69 70 68 71 74 74 71 63 60 63 59 55 50
106 108 114 114 114 108 91 82 79 87 86 83 88 81 81 76 43 77 80 8 27 41 32 39 47 57 59 56 60 66 67 66 69 73 75 72 73 75 75 70 64 60 55 52
108 108 106 115 114 105 97 68 84 81 87 84 79 71 106 98 64 41 54 50 45 45 51 43 47 53 62 66 66 66 72 74 73 73 75 76 77 80 74 78 75 68 65 59
103 107 117 110 102 102 107 103 95 85 83 73 66 60 53 51 101 93 69 63 59 62 57 41 42 46 50 60 67 72 70 67 70 77 78 77 74 76 75 72 70 68 64 57
109 106 96 82 101 109 108 108 104 98 101 93 71 63 65 62 76 82 82 70 60 63 62 56 55 59 61 59 59 61 62 67 69 66 70 72 73 72 71 68 65 61 58 54
96 107 106 96 87 96 99 101 106 97 86 109 99 74 82 78 73 72 71 68 62 60 58 52 52 54 65 67 67 64 65 62 57 66 67 68 65 66 66 66 64 61 57 51